TimeCST,TemperatureF,Dew PointF,Humidity,Sea Level PressureIn,VisibilityMPH,Wind Direction,Wind SpeedMPH,Gust SpeedMPH,PrecipitationIn,Events,Conditions,WindDirDegrees,DateUTC
12:53 AM,30.0,24.1,79,30.39,10.0,ENE,3.5,-,N/A,,Clear,60,2012-11-14 06:53:00
1:53 AM,30.0,24.1,79,30.38,10.0,ENE,4.6,-,N/A,,Clear,60,2012-11-14 07:53:00
2:53 AM,30.0,24.1,79,30.38,10.0,NE,4.6,-,N/A,,Clear,50,2012-11-14 08:53:00
3:53 AM,28.9,23.0,78,30.38,10.0,NNE,3.5,-,N/A,,Clear,30,2012-11-14 09:53:00
4:53 AM,28.9,24.1,82,30.39,10.0,NE,4.6,-,N/A,,Clear,50,2012-11-14 10:53:00
5:53 AM,28.0,24.1,85,30.40,10.0,NE,4.6,-,N/A,,Clear,50,2012-11-14 11:53:00
6:53 AM,28.9,24.1,82,30.41,10.0,ENE,3.5,-,N/A,,Clear,60,2012-11-14 12:53:00
7:53 AM,34.0,26.1,73,30.42,10.0,ENE,4.6,-,N/A,,Clear,60,2012-11-14 13:53:00
8:53 AM,37.9,28.0,68,30.42,10.0,ENE,3.5,-,N/A,,Clear,60,2012-11-14 14:53:00
9:53 AM,43.0,28.0,56,30.40,10.0,Variable,3.5,-,N/A,,Clear,0,2012-11-14 15:53:00
10:53 AM,46.0,27.0,47,30.38,10.0,Calm,Calm,-,N/A,,Clear,0,2012-11-14 16:53:00
11:53 AM,50.0,28.0,43,30.35,10.0,NNE,3.5,-,N/A,,Clear,30,2012-11-14 17:53:00
12:53 PM,50.0,28.9,44,30.33,10.0,Calm,Calm,-,N/A,,Clear,0,2012-11-14 18:53:00
1:53 PM,50.0,28.9,44,30.31,10.0,Variable,3.5,-,N/A,,Clear,0,2012-11-14 19:53:00
2:53 PM,51.1,30.0,44,30.31,10.0,North,3.5,-,N/A,,Clear,10,2012-11-14 20:53:00
3:53 PM,48.9,30.9,50,30.30,10.0,North,4.6,-,N/A,,Clear,10,2012-11-14 21:53:00
4:53 PM,45.0,30.0,56,30.31,10.0,NNE,5.8,-,N/A,,Clear,30,2012-11-14 22:53:00
5:53 PM,44.1,30.0,58,30.33,10.0,Calm,Calm,-,N/A,,Clear,0,2012-11-14 23:53:00
6:53 PM,43.0,28.9,58,30.34,10.0,NNE,5.8,-,N/A,,Clear,20,2012-11-15 00:53:00
7:53 PM,41.0,28.9,62,30.33,10.0,Calm,Calm,-,N/A,,Clear,0,2012-11-15 01:53:00
8:53 PM,39.9,28.0,63,30.32,10.0,Calm,Calm,-,N/A,,Clear,0,2012-11-15 02:53:00
9:53 PM,39.0,28.0,65,30.30,10.0,Calm,Calm,-,N/A,,Clear,0,2012-11-15 03:53:00
10:53 PM,37.0,28.0,70,30.29,10.0,Calm,Calm,-,N/A,,Clear,0,2012-11-15 04:53:00
11:53 PM,34.0,27.0,75,30.27,10.0,Calm,Calm,-,N/A,,Clear,0,2012-11-15 05:53:00